THOR ABLESTAR DEB, 3592

Orbit data source: Space-Track

THOR ABLESTAR DEB, 3592 is space debris in LEO originally from a launch on Thu, 24 Jun 1965 UTC launched from the Air Force Western Test Range (AFWTR). Debris objects in space refer to the collection of defunct objects orbiting the Earth. Examples of debris include non-operational satellites, rocket bodies, and fragments generated from explosions, collisions, or faulty payload assembly.

Loading next visibility...
Identifier
3592, 1965-048F
Orbit
LEO
Country
Flag of USUS
Related business
Manufacturer
Unknown
Mission
Spacecraft
Bus & Motor
Unknown
Mass
Unknown
Launch date (UTC)
1965-06-24 (61 years ago)
Launch vehicle
Unknown
Launch site
Air Force Western Test Range (AFWTR)
Object type
Payload
Rocket body
Debris
Shape & HBR
Unknown shape, 0.1 m
Radar Cross Section
Small (<0.1 m²)

Expand to show TLE details & history
Last TLE update: 10 hours ago

TLE from 10 hours ago
0 THOR ABLESTAR DEB
1  3592U 65048F   26035.49358461  .00000376  00000-0  46448-3 0  9993
2  3592  89.8795 289.4471 0061158 354.9775 184.6744 13.62646087  1887
Epoch: 2026-02-04T11:50Z
TLE epoch observation values (Epoch: 2026-02-04T11:50:45.710Z)
Latitude
0.29108°
Longitude
157.09666°
Altitude
1,074.169 km
Speed
7.293 km/s
True Right ascension
07h 17m 47s
True Declination
0° 17' 22"
Sunlit
Object was in full shadow at epoch
Visualization orbit readout
Latitude
Unknown
Longitude
Unknown
Altitude
Unknown
Speed
Unknown
Apparent Right ascension
Unknown
Apparent Declination
Unknown
Sunlit
N/A
Visualization observer readout
Local Sidereal Time
00:13:36
Azimuth
Unknown
Elevation
Unknown
Doppler factor
Unknown
Orbital elements
Apogee altitude
1,068.387 km
Perigee altitude
977.858 km
Semi-major axis
7,401.259 km
Eccentricity
0.00612
Inclination
89.8795°
RAAN
289.4471°
Arg. of periapsis
354.9775°
True anomaly
184.61772°
Mean anomaly
184.6744°
Eccentric anomaly
184.64602°
Mean motion
3.40867 °/min
Orbital period
105.61 mins
BSTAR
0.00046448
Loading maneuver chart data...
Computing Atmospheric mass density...

Documentation

Showing up to 5 results
|